{"data":{"norad_id":66871,"intl_designator":"2025-281Z","name":"STARLINK-36095","alt_names":[],"object_type":"PAYLOAD","status":"ACTIVE","operator":null,"country":"US","launch_date":"2025-12-02","launch_site_code":"AFETR","launch_vehicle":null,"mission":null,"orbit_class":"UNKNOWN","rcs_meters":null,"size_class":null,"mass_kg":null,"dimensions":null,"purposes":["comms"],"wikipedia_slug":null,"has_3d_model":false,"image_url":null,"decayed_at":null,"tle_current":{"epoch":"2026-05-25T01:22:40.439136Z","epoch_age_seconds":80289,"freshness":"FRESH","line1":"1 66871U 25281Z   26145.05741249  .00019740  00000+0  72445-3 0  9991","line2":"2 66871  42.9986 272.3014 0001486 280.8806  79.1878 15.27601739 27840","mean_motion":15.27601739,"eccentricity":0.0001486,"inclination_deg":42.9986,"raan_deg":272.3014,"arg_perigee_deg":280.8806,"mean_anomaly_deg":79.1878,"bstar":0.00072445,"rev_number":2784,"period_min":94.265407222085,"perigee_km":481.96443984408,"apogee_km":484.003565006,"semimajor_km":6861.121002425,"source":"CELESTRAK","updated_at":"2026-05-25T13:38:21.375045Z"}}}